[[{"header":{"parameterUnit":"m.s-1","parameterCategory":1,"la1":30.2991,"la2":30.254,"lo1":-89.0895,"lo2":-89.0444,"dy":0.0017,"dx":0.0017,"nx":28,"ny":28,"refTime":"2024-10-17T03:00:00:Z","depth":0,"parameterNumber":2,"parameterNumberName":"U-component_of_WINDS"},"data":[0,0,0,0,0,0,0,0,0,0,0,0,0,0,0,0,0,0,0,0,0,0,0,0,0,0,0,0,0,0,0,0,0,0,0,0,0,0,0,0,0,0,0,0,0,0,0,0,0,0,0,0,0,0,0,0,0,0,-4.3613,-4.3613,0,-4.3584,-4.3583,-4.3583,-4.344,-4.3436,-4.3433,-4.343,-4.3402,-4.3404,-4.3407,0,0,0,0,0,0,0,0,0,0,0,0,0,-4.3548,-4.355,-4.3613,-4.3613,-4.3612,-4.3584,-4.3583,-4.3583,-4.344,-4.3436,-4.3432,-4.3428,-4.3401,-4.3404,-4.3407,0,0,0,0,0,0,0,0,0,0,0,0,0,-4.3553,-4.355,-4.3613,-4.3538,-4.3531,-4.3584,-4.3583,-4.3583,-4.3441,-4.3436,-4.3431,-4.3426,-4.34,-4.3404,-4.3407,-4.3532,0,0,-4.3419,-4.342,0,0,0,0,0,0,0,0,-4.3553,-4.3556,-4.3549,-4.3543,-4.3535,-4.351,-4.355,-4.3566,-4.3442,-4.3475,-4.343,-4.3424,-4.3442,-4.3442,-4.3448,-4.3531,-4.3529,-4.3419,-4.3421,-4.3423,-4.3424,0,0,0,0,0,0,0,-4.3553,-4.3556,-4.3601,-4.3549,-4.3541,-4.3506,-4.3501,-4.3552,-4.3488,-4.3472,-4.3461,-4.346,-4.3437,-4.3445,-4.3446,-4.3529,-4.3419,-4.3422,-4.3424,-4.3426,-4.3713,-4.3719,0,0,0,0,0,0,-4.3563,-4.3557,-4.3602,-4.36,-4.3532,-4.3511,-4.3506,-4.3523,-4.3487,-4.3476,-4.3464,-4.3453,-4.3441,-4.3442,-4.3445,-4.3588,-4.3423,-4.3426,-4.3428,-4.3708,-4.3715,-4.372,0,0,0,0,0,0,-4.3562,-4.3568,-4.3603,-4.3576,-4.3578,-4.3518,-4.3539,-4.3525,-4.3532,-4.3481,-4.3469,-4.3483,-4.3437,-4.344,-4.3511,-4.3585,-4.3428,-4.3431,-4.3702,-4.371,-4.3718,-4.3877,0,0,0,0,0,0,-4.3561,-4.3569,-4.3615,-4.3578,-4.358,-4.367,-4.3543,-4.3529,-4.3539,-4.3524,-4.3496,-4.3486,-4.3433,-4.3507,-4.3515,-4.3588,-4.3434,-4.3695,-4.3705,-4.3715,-4.3865,-4.389,-4.3911,0,0,0,0,0,-4.3559,-4.3661,-4.3618,-4.3624,-4.3636,-4.3675,-4.3676,-4.3612,-4.3545,-4.3592,-4.3559,-4.3487,-4.3576,-4.3515,-4.3523,-4.3598,-4.369,-4.3702,-4.3714,-4.3854,-4.3885,-4.391,0,0,0,0,0,0,-4.3708,-4.3655,-4.3606,-4.3699,-4.3693,-4.365,-4.3706,-4.3646,-4.3659,-4.3645,-4.3566,-4.3561,-4.3645,-4.3628,-4.3562,-4.3717,-4.3621,-4.3635,-4.3725,-4.3753,-4.3776,-4.3778,-4.3437,0,0,0,0,0,-4.3752,-4.3788,-4.3739,-4.3826,-4.3825,-4.3767,-4.3782,-4.3733,-4.3724,-4.372,-4.3692,-4.3686,-4.3713,-4.3732,-4.3753,-4.3862,-4.3854,-4.3918,-4.3941,-4.396,-4.3973,-4.403,-4.4058,-4.3761,-4.3761,-4.376,0,0,-4.3843,-4.3818,-4.3845,-4.3855,-4.3844,-4.3884,-4.3766,-4.3812,-4.384,-4.3727,-4.3793,-4.3773,-4.3761,-4.3852,-4.3891,-4.3841,-4.4054,-4.3975,-4.3991,-4.3994,-4.4046,-4.4074,-4.4099,-4.3769,-4.3768,-4.3766,0,0,-4.4028,-4.4013,-4.4084,-4.4076,-4.4061,-4.4022,-4.4039,-4.4006,-4.3988,-4.4053,-4.397,-4.4003,-4.405,-4.4045,-4.4049,-4.4235,-4.417,-4.4245,-4.4365,-4.4421,-4.4445,-4.4465,-4.4532,-4.4557,-4.4258,-4.4259,-4.4259,0,-4.4143,-4.4198,-4.4128,-4.418,-4.4188,-4.4087,-4.4159,-4.4155,-4.4148,-4.4156,-4.41,-4.4158,-4.4143,-4.4232,-4.4278,-4.4284,-4.4302,-4.4247,-4.4447,-4.4467,-4.4485,-4.4548,-4.4573,-4.4268,-4.4267,-4.4266,-4.4265,0,-4.4341,-4.438,-4.444,-4.4436,-4.445,-4.4512,-4.4452,-4.4475,-4.4426,-4.4394,-4.4462,-4.4441,-4.4456,-4.4474,-4.4427,-4.4557,-4.4527,-4.4461,-4.4362,-4.4524,-4.4581,-4.4605,-4.4281,-4.4278,-4.4275,-4.4273,0,0,-4.4618,-4.4576,-4.4599,-4.4596,-4.4573,-4.4603,-4.4661,-4.4676,-4.4698,-4.4697,-4.4744,-4.4788,-4.4726,-4.4731,-4.4682,-4.4733,-4.4882,-4.466,-4.4658,-4.4702,-4.5026,-4.5076,-4.5105,-4.4839,-4.4843,-4.4847,-4.5027,0,-4.4796,-4.4892,-4.4831,-4.4937,-4.4973,-4.4879,-4.493,-4.4922,-4.4894,-4.4921,-4.489,-4.4922,-4.4838,-4.484,-4.4886,-4.4855,-4.4946,-4.4841,-4.4883,-4.4886,-4.4889,-4.5135,-4.5187,-4.5358,-4.5049,-4.5053,-4.5055,0,-4.5015,-4.5024,-4.5134,-4.5105,-4.5118,-4.5164,-4.5174,-4.5201,-4.5191,-4.5167,-4.5173,-4.5113,-4.5169,-4.5072,-4.5149,-4.5079,-4.5093,-4.5081,-4.5086,-4.5087,-4.498,-4.5143,-4.5411,-4.5437,-4.509,-4.5087,-4.5085,0,-4.5208,-4.5247,-4.5318,-4.5318,-4.5286,-4.5321,-4.531,-4.5294,-4.5308,-4.5317,-4.5325,-4.5341,-4.535,-4.5364,-4.531,-4.5244,-4.5395,-4.5293,-4.5377,-4.5379,-4.5413,-4.5411,-4.5687,-4.5422,-4.5422,-4.5421,-4.5421,0,-4.5412,-4.5483,-4.5404,-4.5447,-4.5525,-4.5455,-4.5534,-4.5512,-4.5499,-4.5538,-4.5458,-4.5496,-4.5422,-4.5453,-4.5412,-4.5483,-4.5487,-4.547,-4.5458,-4.5477,-4.548,-4.5485,-4.5472,-4.5428,-4.5426,-4.5425,-4.5424,0,-4.5639,-4.5589,-4.566,-4.5624,-4.5617,-4.5675,-4.5645,-4.5684,-4.5651,-4.5701,-4.5709,-4.5657,-4.5689,-4.5637,-4.5663,-4.5635,-4.5734,-4.5704,-4.5737,-4.5729,-4.5816,-4.5808,-4.6104,-4.614,-4.5853,-4.5856,-4.5858,0,-4.5773,-4.5825,-4.5795,-4.5815,-4.5808,-4.5841,-4.5854,-4.5789,-4.5806,-4.5799,-4.584,-4.5866,-4.5883,-4.594,-4.5905,-4.5926,-4.5896,-4.5998,-4.5898,-4.5916,-4.5898,-4.5895,-4.5901,-4.6019,-4.6022,-4.6025,-4.6027,0,-4.6016,-4.5989,-4.6011,-4.6025,-4.6044,-4.6052,-4.6054,-4.6075,-4.6006,-4.603,-4.6062,-4.6076,-4.6103,-4.613,-4.6142,-4.6131,-4.6069,-4.6059,-4.608,-4.61,-4.6117,-4.611,-4.5794,-4.6053,-4.605,-4.6048,-4.6047,-4.6046,-4.6201,-4.6243,-4.6229,-4.6257,-4.6251,-4.6256,-4.6292,-4.6263,-4.6288,-4.6305,-4.6265,-4.6308,-4.6297,-4.6307,-4.6303,-4.6336,-4.6291,-4.6321,-4.6328,-4.6337,-4.6351,-4.6113,-4.6338,-4.6337,-4.6336,-4.6336,-4.6335,0,-4.644,-4.6426,-4.6452,-4.6458,-4.6481,-4.6419,-4.6419,-4.6442,-4.648,-4.6476,-4.6495,-4.6533,-4.6559,-4.6527,-4.6548,-4.6581,-4.6553,-4.6589,-4.6586,-4.6584,-4.6389,-4.637,-4.6611,-4.6611,-4.6611,-4.6611,-4.6611,-4.6611,-4.6567,-4.6635,-4.6607,-4.6674,-4.6659,-4.67,-4.6705,-4.671,-4.6706,-4.6752,-4.6773,-4.6752,-4.6737,-4.6756,-4.6778,-4.6768,-4.678,-4.6826,-4.6807,-4.6625,-4.6598,-4.6572,-4.6553,-4.6829,-4.683,-4.6998,-4.7,-4.7001]},{"header":{"parameterUnit":"m.s-1","parameterCategory":1,"la1":30.2991,"la2":30.254,"lo1":-89.0895,"lo2":-89.0444,"dy":0.0017,"dx":0.0017,"nx":28,"ny":28,"refTime":"2024-10-17T03:00:00:Z","depth":0,"parameterNumber":3,"parameterNumberName":"V-component_of_WINDS"},"data":[0,0,0,0,0,0,0,0,0,0,0,0,0,0,0,0,0,0,0,0,0,0,0,0,0,0,0,0,0,0,0,0,0,0,0,0,0,0,0,0,0,0,0,0,0,0,0,0,0,0,0,0,0,0,0,0,0,0,-0.6068,-0.6068,0,-0.6096,-0.6096,-0.6096,-0.6079,-0.6078,-0.6077,-0.6076,-0.6107,-0.6108,-0.611,0,0,0,0,0,0,0,0,0,0,0,0,0,-0.5999,-0.6001,-0.6068,-0.6068,-0.6068,-0.6096,-0.6096,-0.6096,-0.6079,-0.6078,-0.6077,-0.6076,-0.6106,-0.6108,-0.611,0,0,0,0,0,0,0,0,0,0,0,0,0,-0.6028,-0.6001,-0.6068,-0.6063,-0.6063,-0.6096,-0.6096,-0.6096,-0.6079,-0.6078,-0.6077,-0.6075,-0.6105,-0.6108,-0.611,-0.615,0,0,-0.6117,-0.6118,0,0,0,0,0,0,0,0,-0.6027,-0.6031,-0.6063,-0.6063,-0.6063,-0.6082,-0.6083,-0.6114,-0.6079,-0.6073,-0.6076,-0.6075,-0.61,-0.6102,-0.6111,-0.6151,-0.6153,-0.6118,-0.6119,-0.612,-0.6121,0,0,0,0,0,0,0,-0.6025,-0.603,-0.6079,-0.6064,-0.6064,-0.6059,-0.6062,-0.6089,-0.6093,-0.6073,-0.6072,-0.6076,-0.6099,-0.6108,-0.6111,-0.6153,-0.6118,-0.612,-0.6121,-0.6122,-0.6227,-0.6228,0,0,0,0,0,0,-0.6023,-0.6028,-0.6078,-0.608,-0.6041,-0.6062,-0.6065,-0.6077,-0.6093,-0.6094,-0.6077,-0.6075,-0.6105,-0.6108,-0.6112,-0.616,-0.612,-0.6122,-0.6124,-0.6226,-0.6227,-0.6229,0,0,0,0,0,0,-0.6022,-0.6028,-0.6077,-0.6053,-0.6059,-0.6064,-0.6079,-0.6079,-0.6087,-0.6095,-0.6096,-0.6085,-0.6104,-0.6109,-0.614,-0.6161,-0.6123,-0.6126,-0.6224,-0.6226,-0.6228,-0.6255,0,0,0,0,0,0,-0.602,-0.6027,-0.6042,-0.6054,-0.6061,-0.6105,-0.608,-0.608,-0.6091,-0.6089,-0.6103,-0.6104,-0.6103,-0.6137,-0.6143,-0.6163,-0.6127,-0.6222,-0.6225,-0.6227,-0.6253,-0.6258,-0.6263,0,0,0,0,0,-0.6017,-0.6049,-0.6043,-0.6049,-0.608,-0.6106,-0.611,-0.6108,-0.6093,-0.6109,-0.6113,-0.6104,-0.6157,-0.614,-0.6147,-0.6168,-0.6221,-0.6224,-0.6227,-0.625,-0.6257,-0.6262,0,0,0,0,0,0,-0.6041,-0.6051,-0.6044,-0.6081,-0.6092,-0.6103,-0.6122,-0.6115,-0.6131,-0.6128,-0.6125,-0.6129,-0.6162,-0.6168,-0.6149,-0.6207,-0.6187,-0.6191,-0.6202,-0.6208,-0.6213,-0.6212,-0.6129,0,0,0,0,0,-0.605,-0.607,-0.6078,-0.611,-0.6116,-0.6118,-0.6129,-0.6126,-0.6138,-0.6143,-0.615,-0.6163,-0.6182,-0.6195,-0.6214,-0.6253,-0.6256,-0.627,-0.6275,-0.6279,-0.6284,-0.6305,-0.6312,-0.6239,-0.6239,-0.6239,0,0,-0.607,-0.6078,-0.6091,-0.6114,-0.6123,-0.6144,-0.6122,-0.6146,-0.6161,-0.6147,-0.6178,-0.6183,-0.6196,-0.6232,-0.6248,-0.6238,-0.6304,-0.6283,-0.6286,-0.6289,-0.6309,-0.6316,-0.6322,-0.6241,-0.6241,-0.624,0,0,-0.6118,-0.6125,-0.6153,-0.6161,-0.6174,-0.6175,-0.6181,-0.6192,-0.6195,-0.6225,-0.6215,-0.6233,-0.6267,-0.6277,-0.6287,-0.6336,-0.6328,-0.6341,-0.6368,-0.6389,-0.6394,-0.64,-0.6418,-0.6424,-0.6345,-0.6346,-0.6346,0,-0.6141,-0.6172,-0.6168,-0.6192,-0.6202,-0.6189,-0.6216,-0.6225,-0.6244,-0.6251,-0.624,-0.6281,-0.6289,-0.6327,-0.6338,-0.6346,-0.6354,-0.6341,-0.6394,-0.6399,-0.6404,-0.6421,-0.6428,-0.6347,-0.6347,-0.6347,-0.6347,0,-0.6201,-0.6222,-0.6243,-0.626,-0.6273,-0.6298,-0.6297,-0.6311,-0.6306,-0.6308,-0.6339,-0.6348,-0.6367,-0.6376,-0.6372,-0.6412,-0.6406,-0.6394,-0.6374,-0.6412,-0.6429,-0.6435,-0.635,-0.6349,-0.6349,-0.6348,0,0,-0.6266,-0.6279,-0.6287,-0.6294,-0.6307,-0.6324,-0.6348,-0.6366,-0.6378,-0.6391,-0.6412,-0.6439,-0.6428,-0.6439,-0.6436,-0.6453,-0.6492,-0.6439,-0.6439,-0.645,-0.6538,-0.6548,-0.6556,-0.6486,-0.6487,-0.6488,-0.6537,0,-0.6315,-0.6358,-0.6354,-0.6395,-0.6414,-0.6401,-0.6422,-0.6432,-0.6434,-0.6451,-0.6454,-0.6474,-0.6457,-0.6463,-0.648,-0.6484,-0.651,-0.648,-0.6506,-0.6507,-0.6505,-0.6564,-0.6575,-0.6621,-0.6543,-0.6544,-0.6545,0,-0.6379,-0.6393,-0.6435,-0.6444,-0.6452,-0.6471,-0.6487,-0.6504,-0.6514,-0.6514,-0.6526,-0.6519,-0.6544,-0.6521,-0.6556,-0.6535,-0.6545,-0.6548,-0.655,-0.6554,-0.653,-0.6571,-0.6635,-0.6643,-0.6555,-0.6554,-0.6553,0,-0.6423,-0.6453,-0.6482,-0.6488,-0.6499,-0.6513,-0.6518,-0.6527,-0.6538,-0.6552,-0.6559,-0.6576,-0.6586,-0.6599,-0.6597,-0.658,-0.6631,-0.6609,-0.6633,-0.6633,-0.6646,-0.6646,-0.6715,-0.665,-0.665,-0.665,-0.665,0,-0.6479,-0.6506,-0.6502,-0.652,-0.655,-0.6544,-0.6573,-0.6576,-0.6584,-0.6603,-0.6592,-0.661,-0.6605,-0.6623,-0.6621,-0.665,-0.6654,-0.6655,-0.6655,-0.6657,-0.6657,-0.6665,-0.6662,-0.6652,-0.6651,-0.6651,-0.6651,0,-0.6535,-0.6533,-0.6564,-0.6571,-0.6573,-0.6595,-0.66,-0.6618,-0.6618,-0.6641,-0.6647,-0.6647,-0.6667,-0.6666,-0.6689,-0.6687,-0.6723,-0.6718,-0.672,-0.6719,-0.6743,-0.6742,-0.6821,-0.6832,-0.6759,-0.676,-0.676,0,-0.6572,-0.6592,-0.66,-0.6612,-0.6618,-0.6636,-0.6647,-0.6641,-0.6653,-0.6666,-0.6681,-0.67,-0.6715,-0.6747,-0.675,-0.6767,-0.6763,-0.679,-0.6766,-0.6768,-0.6765,-0.6764,-0.6767,-0.6795,-0.6796,-0.6797,-0.6797,0,-0.6638,-0.6635,-0.6651,-0.6666,-0.6679,-0.6691,-0.6702,-0.6712,-0.6707,-0.6721,-0.6741,-0.6752,-0.6775,-0.6794,-0.6809,-0.6815,-0.6806,-0.6804,-0.6811,-0.6815,-0.6815,-0.6816,-0.6734,-0.6803,-0.6803,-0.6802,-0.6802,-0.6802,-0.6686,-0.6703,-0.6711,-0.6729,-0.6736,-0.6746,-0.6762,-0.6764,-0.678,-0.6798,-0.6793,-0.6816,-0.6825,-0.6845,-0.6851,-0.6869,-0.686,-0.6869,-0.6872,-0.6874,-0.6878,-0.6811,-0.6872,-0.6872,-0.6871,-0.6871,-0.6871,0,-0.6752,-0.6756,-0.6772,-0.6787,-0.6801,-0.6789,-0.68,-0.6813,-0.6833,-0.6841,-0.6856,-0.6878,-0.6896,-0.6899,-0.6916,-0.693,-0.6926,-0.6934,-0.6934,-0.6936,-0.6885,-0.6878,-0.6937,-0.6937,-0.6937,-0.6937,-0.6937,-0.6937,-0.6788,-0.6816,-0.6815,-0.6846,-0.685,-0.6872,-0.6879,-0.6888,-0.6895,-0.692,-0.6935,-0.6936,-0.6943,-0.696,-0.6976,-0.6976,-0.6983,-0.6994,-0.6993,-0.6946,-0.6939,-0.6933,-0.6927,-0.6995,-0.6995,-0.7042,-0.7043,-0.7043]}]]